Location: *
(44.3925°N, 5.4708°E)
Time: 05:17:19
(UTC+00:00)

Resurs 01 Rocket - Pass Details

Date: 18 September 2019
Orbit: 635 x 644 km, 98.0° (Epoch: 20 October)

Event Time Altitude Azimuth Distance (km) Brightness Sun altitude
Exits shadow 19:05:43 23° 85° (E) 1,359 2.8 -15.2°
Maximum altitude 19:06:36 25° 66° (ENE) 1,304 2.8 -15.3°
Drops below altitude 10° 19:10:13 10° 12° (NNE) 2,047 4.3 -15.9°
Sets 19:12:44 0° 359° (N) 2,962 5.3 -16.4°
